Location: Rochester
(43.1610°N, 77.6109°W)
Time: 01:23:20
(UTC-04:00)

ISS - Visible Passes

Search period start: 28 July 2021 00:00
Search period end: 07 August 2021 00:00
Orbit: 419 x 421 km, 51.6° (Epoch: 28 July)

Date Brightness Start Highest point End Pass type
(mag) Time Alt. Az. Time Alt. Az. Time Alt. Az.
28 Jul -3.9 22:36:45 10° WNW 22:40:08 80° SSW 22:40:30 67° SSE visible
29 Jul -3.5 21:49:30 10° NW 21:52:52 65° NNE 21:54:54 21° ESE visible
29 Jul -1.1 23:27:03 10° W 23:27:52 14° WSW 23:27:52 14° WSW visible
30 Jul -2.9 21:02:19 10° NW 21:05:35 43° NNE 21:08:50 10° E visible
30 Jul -2.4 22:39:21 10° WNW 22:42:18 28° SW 22:42:21 28° SW visible
31 Jul -3.2 21:51:57 10° WNW 21:55:13 47° SW 21:56:55 24° SSE visible
01 Aug -3.7 21:04:42 10° WNW 21:08:06 78° SW 21:11:28 10° SE visible
01 Aug -1.0 22:44:00 10° WSW 22:44:23 10° SW 22:44:33 10° SW visible
02 Aug -1.5 21:55:11 10° W 21:57:28 17° SW 21:59:18 12° S visible
03 Aug -2.1 21:07:35 10° WNW 21:10:31 27° SW 21:13:26 10° SSE visible
